| time (UTC) | temp F | wind direction | speed knots | gust knots | rain 1hr in | rain 24hr in | rain mn in | humidity % | barometer mb |
| 20260504081508 | 53 | 259 | 2.6 | 7.0 | 0.00 | 0.00 | 0.00 | 49 | 1000.0 |
| 20260504044535 | 50 | 209 | 0.0 | 1.7 | 0.00 | 0.00 | 0.00 | 54 | 1003.2 |
| 20260504043027 | 50 | 243 | 0.0 | 1.7 | 0.00 | 0.00 | 0.00 | 54 | 1003.3 |
| 20260504041522 | 51 | 238 | 0.9 | 3.5 | 0.00 | 0.00 | 0.00 | 54 | 1003.6 |
| 20260504040022 | 49 | 230 | 0.9 | 1.7 | 0.00 | 0.00 | 0.00 | 57 | 1003.8 |
| 20260504034537 | 48 | 196 | 0.0 | 0.0 | 0.00 | 0.00 | 0.00 | 57 | 1003.9 |
| 20260504033029 | 49 | 196 | 0.0 | 1.7 | 0.00 | 0.00 | 0.00 | 55 | 1004.3 |
| 20260504031530 | 51 | 196 | 0.0 | 0.0 | 0.00 | 0.00 | 0.00 | 52 | 1004.7 |
| 20260504030038 | 52 | 196 | 0.0 | 1.7 | 0.00 | 0.00 | 0.00 | 51 | 1004.9 |
| 20260504024524 | 53 | 196 | 0.0 | 0.0 | 0.00 | 0.00 | 0.00 | 49 | 1005.1 |
| 20260504023027 | 54 | 196 | 0.9 | 2.6 | 0.00 | 0.00 | 0.00 | 45 | 1005.1 |
| 20260504021516 | 56 | 239 | 0.0 | 1.7 | 0.00 | 0.00 | 0.00 | 43 | 1005.2 |
| 20260504020020 | 58 | 239 | 0.0 | 0.0 | 0.00 | 0.00 | 0.00 | 39 | 1005.4 |
| 20260504014535 | 59 | 239 | 0.0 | 1.7 | 0.00 | 0.00 | 0.00 | 37 | 1005.5 |
| 20260504013006 | 61 | 249 | 0.0 | 1.7 | 0.00 | 0.00 | 0.00 | 36 | 1005.7 |
| 20260504011513 | 62 | 268 | 0.9 | 2.6 | 0.00 | 0.00 | 0.00 | 33 | 1005.7 |
| 20260504010021 | 64 | 267 | 0.9 | 3.5 | 0.00 | 0.00 | 0.00 | 31 | 1005.8 |
| 20260504004522 | 66 | 254 | 1.7 | 6.1 | 0.00 | 0.00 | 0.00 | 30 | 1005.8 |
| 20260504003021 | 68 | 263 | 1.7 | 5.2 | 0.00 | 0.00 | 0.00 | 26 | 1005.9 |
| 20260504001509 | 69 | 268 | 2.6 | 7.0 | 0.00 | 0.00 | 0.00 | 26 | 1006.0 |
| 20260504000014 | 69 | 247 | 2.6 | 7.0 | 0.00 | 0.00 | 0.00 | 26 | 1006.0 |
| 20260503234535 | 69 | 274 | 3.5 | 6.1 | 0.00 | 0.00 | 0.00 | 24 | 1006.2 |
| 20260503233024 | 70 | 270 | 3.5 | 7.0 | 0.00 | 0.00 | 0.00 | 25 | 1006.4 |
| 20260503231513 | 70 | 276 | 2.6 | 8.7 | 0.00 | 0.00 | 0.00 | 25 | 1006.6 |
| 20260503230016 | 70 | 289 | 2.6 | 7.0 | 0.00 | 0.00 | 0.00 | 25 | 1006.9 |
| 20260503224516 | 71 | 242 | 2.6 | 6.1 | 0.00 | 0.00 | 0.00 | 23 | 1007.0 |
| 20260503223024 | 71 | 267 | 2.6 | 8.7 | 0.00 | 0.00 | 0.00 | 24 | 1007.2 |
| 20260503221526 | 71 | 359 | 1.7 | 6.1 | 0.00 | 0.00 | 0.00 | 24 | 1007.3 |
| 20260503220012 | 71 | 277 | 3.5 | 6.1 | 0.00 | 0.00 | 0.00 | 26 | 1007.5 |
| 20260503214516 | 71 | 274 | 2.6 | 5.2 | 0.00 | 0.00 | 0.00 | 27 | 1007.6 |
| 20260503213021 | 70 | 279 | 2.6 | 7.0 | 0.00 | 0.00 | 0.00 | 26 | 1007.8 |
| 20260503211524 | 70 | 275 | 2.6 | 7.8 | 0.00 | 0.00 | 0.00 | 29 | 1008.0 |
| 20260503210029 | 70 | 264 | 3.5 | 7.0 | 0.00 | 0.00 | 0.00 | 30 | 1008.5 |
| 20260503204516 | 69 | 266 | 3.5 | 6.1 | 0.00 | 0.00 | 0.00 | 28 | 1008.7 |
| 20260503203023 | 69 | 332 | 3.5 | 7.8 | 0.00 | 0.00 | 0.00 | 27 | 1008.8 |
| 20260503201526 | 69 | 250 | 3.5 | 7.0 | 0.00 | 0.00 | 0.00 | 27 | 1009.1 |
| 20260503200028 | 69 | 267 | 4.3 | 12.2 | 0.00 | 0.00 | 0.00 | 30 | 1009.2 |
| 20260503194514 | 68 | 281 | 3.5 | 7.0 | 0.00 | 0.00 | 0.00 | 30 | 1009.5 |
| 20260503193027 | 67 | 274 | 4.3 | 8.7 | 0.00 | 0.00 | 0.00 | 29 | 1009.6 |
| 20260503191524 | 67 | 352 | 4.3 | 8.7 | 0.00 | 0.00 | 0.00 | 30 | 1010.0 |
| 20260503190027 | 67 | 259 | 3.5 | 9.6 | 0.00 | 0.00 | 0.00 | 31 | 1010.2 |
| 20260503184535 | 67 | 270 | 5.2 | 11.3 | 0.00 | 0.00 | 0.00 | 32 | 1010.2 |
| 20260503183015 | 66 | 314 | 2.6 | 8.7 | 0.00 | 0.00 | 0.00 | 34 | 1010.5 |
| 20260503181522 | 66 | 332 | 3.5 | 7.8 | 0.00 | 0.00 | 0.00 | 34 | 1010.8 |
| 20260503180025 | 66 | 337 | 4.3 | 11.3 | 0.00 | 0.00 | 0.00 | 36 | 1010.9 |
| 20260503174528 | 66 | 342 | 3.5 | 7.8 | 0.00 | 0.00 | 0.00 | 38 | 1011.1 |
| 20260503173039 | 65 | 28 | 5.2 | 14.8 | 0.00 | 0.00 | 0.00 | 37 | 1011.2 |
| 20260503171520 | 64 | 330 | 5.2 | 13.9 | 0.00 | 0.00 | 0.00 | 35 | 1011.4 |